GEFSNE_prec_meanprecacc_258.txt.gz
Total_Precipitation_Accumulation
2.18 2.28 2.26 2.24 2.24 2.16 2.22 2.30 2.37 2.28 2.06 1.84 1.78 1.68 1.71 1.73 1.84 1.49 1.50 1.68 1.48 1.37 1.29 1.25 1.25 1.19 1.16 1.16 1.14 1.15 1.18 1.27 1.38 1.49 1.58 1.68 1.81 2.01
1.91 2.07 2.13 2.15 2.26 2.30 2.39 2.40 2.40 2.39 2.26 1.94 1.84 1.76 1.75 1.67 1.92 1.65 1.61 1.68 1.46 1.29 1.17 1.09 1.05 1.01 0.99 1.01 1.04 1.06 1.06 1.05 1.08 1.17 1.27 1.38 1.49 1.62
1.74 1.84 1.94 1.99 2.09 2.12 2.19 2.22 2.31 2.35 2.30 2.05 1.91 1.89 1.87 1.84 1.85 1.71 1.61 1.53 1.41 1.29 1.12 1.02 0.97 0.94 0.93 0.95 0.98 0.99 1.02 1.02 1.03 1.05 1.10 1.19 1.27 1.34
1.59 1.66 1.74 1.76 1.83 1.81 1.90 1.96 1.99 2.04 2.07 2.10 2.11 2.05 1.99 1.93 1.85 1.68 1.43 1.26 1.22 1.19 1.07 1.01 0.99 0.99 1.00 1.03 1.03 1.02 0.98 0.93 0.93 0.99 1.04 1.06 1.07 1.16
1.36 1.42 1.48 1.49 1.47 1.44 1.50 1.51 1.61 1.72 1.91 1.97 1.96 2.01 2.00 2.00 2.05 1.76 1.52 1.47 1.13 1.06 1.00 0.99 0.99 0.97 0.96 0.95 0.94 0.93 0.91 0.83 0.76 0.77 0.85 0.95 0.99 0.98
1.15 1.19 1.21 1.16 1.12 1.15 1.17 1.22 1.36 1.62 1.80 1.85 1.76 1.77 1.85 1.84 2.01 1.89 1.73 1.60 1.35 1.01 0.94 0.86 0.88 0.89 0.87 0.81 0.79 0.77 0.78 0.79 0.79 0.76 0.75 0.75 0.78 0.81
1.03 1.03 0.99 0.97 0.99 0.97 0.92 1.03 1.23 1.48 1.61 1.68 1.68 1.63 1.62 1.68 1.75 1.67 1.65 1.64 1.51 1.22 1.11 0.90 0.82 0.85 0.88 0.87 0.83 0.75 0.69 0.67 0.69 0.70 0.71 0.72 0.74 0.76
1.03 0.94 0.89 0.85 0.83 0.84 0.85 0.94 1.06 1.19 1.31 1.44 1.49 1.50 1.50 1.54 1.66 1.65 1.64 1.66 1.63 1.38 1.32 1.18 0.97 1.03 0.99 0.90 0.84 0.75 0.73 0.72 0.71 0.71 0.74 0.75 0.74 0.76
1.06 1.07 0.92 0.76 0.83 0.87 0.89 0.95 0.99 1.03 1.12 1.29 1.38 1.37 1.43 1.55 1.73 1.70 1.70 1.67 1.60 1.43 1.47 1.43 1.25 1.20 0.97 0.83 0.84 0.76 0.71 0.69 0.70 0.70 0.73 0.73 0.75 0.75
0.98 1.00 1.01 0.95 0.90 0.94 0.93 0.95 0.98 1.04 1.10 1.18 1.32 1.34 1.29 1.41 1.61 1.62 1.62 1.59 1.50 1.42 1.48 1.53 1.29 1.20 0.94 0.98 0.90 0.74 0.67 0.68 0.68 0.63 0.64 0.66 0.72 0.76
0.83 0.82 0.82 0.82 0.82 0.90 0.98 1.06 1.07 1.06 0.95 1.01 1.07 1.14 1.24 1.32 1.39 1.44 1.56 1.70 1.63 1.47 1.44 1.53 1.40 1.26 1.09 1.12 0.99 0.83 0.75 0.77 0.72 0.61 0.56 0.56 0.60 0.68
0.78 0.75 0.74 0.69 0.67 0.66 0.77 0.97 1.09 1.05 0.99 1.00 1.12 1.27 1.35 1.39 1.36 1.41 1.54 1.64 1.62 1.62 1.43 1.46 1.45 1.36 1.32 1.13 1.03 0.99 0.98 1.01 0.90 0.72 0.59 0.56 0.59 0.65
0.75 0.75 0.73 0.64 0.55 0.56 0.67 0.84 0.92 0.91 1.00 1.22 1.44 1.49 1.49 1.43 1.34 1.32 1.46 1.58 1.62 1.62 1.39 1.41 1.47 1.49 1.54 1.35 1.07 1.06 1.14 1.23 1.18 0.98 0.77 0.68 0.64 0.62
0.72 0.71 0.67 0.62 0.53 0.56 0.63 0.75 0.80 0.90 1.13 1.38 1.54 1.51 1.33 1.18 1.17 1.17 1.24 1.39 1.50 1.47 1.37 1.39 1.49 1.54 1.52 1.40 1.22 1.14 1.23 1.35 1.38 1.27 1.06 0.93 0.84 0.76
0.64 0.63 0.61 0.62 0.64 0.73 0.79 0.80 0.87 1.06 1.26 1.37 1.37 1.28 1.17 1.11 1.12 1.17 1.15 1.29 1.35 1.25 1.14 1.18 1.34 1.44 1.53 1.47 1.40 1.41 1.48 1.59 1.56 1.50 1.37 1.15 0.99 0.93
0.61 0.66 0.73 0.79 0.82 0.85 0.92 1.00 1.05 1.12 1.13 1.21 1.21 1.15 1.07 1.09 1.13 1.10 1.13 1.21 1.34 1.31 1.19 1.15 1.23 1.38 1.48 1.43 1.49 1.56 1.59 1.81 1.77 1.63 1.55 1.46 1.26 1.06
0.59 0.73 0.91 0.98 1.00 0.99 0.97 1.00 1.04 1.05 1.06 1.05 1.03 1.02 1.04 1.04 1.04 1.01 1.06 1.09 1.22 1.26 1.26 1.23 1.25 1.30 1.28 1.28 1.38 1.42 1.49 1.65 1.75 1.68 1.62 1.69 1.65 1.40
0.63 0.86 0.99 1.03 1.05 0.95 0.90 0.88 0.88 0.89 0.86 0.87 0.90 0.94 0.98 0.97 0.97 0.96 1.00 1.05 1.13 1.14 1.16 1.21 1.25 1.37 1.37 1.23 1.27 1.36 1.36 1.54 1.64 1.59 1.50 1.64 1.78 1.55
0.62 0.76 0.87 0.94 0.95 0.86 0.81 0.82 0.83 0.81 0.80 0.82 0.86 0.90 0.92 0.91 0.93 0.96 0.96 1.01 1.05 1.06 1.08 1.09 1.14 1.24 1.34 1.34 1.29 1.32 1.35 1.40 1.44 1.42 1.42 1.46 1.62 1.56
0.65 0.70 0.76 0.83 0.86 0.82 0.80 0.81 0.81 0.80 0.81 0.82 0.84 0.89 0.93 0.92 0.89 0.88 0.90 0.91 0.96 1.01 1.06 1.10 1.11 1.13 1.19 1.22 1.35 1.37 1.28 1.16 1.12 1.19 1.23 1.30 1.40 1.40
0.66 0.68 0.67 0.71 0.73 0.75 0.78 0.79 0.78 0.77 0.78 0.78 0.79 0.84 0.88 0.88 0.88 0.83 0.81 0.81 0.88 0.95 1.03 1.09 1.10 1.05 1.03 1.09 1.23 1.30 1.26 1.27 1.15 1.04 1.03 1.10 1.12 1.04
0.61 0.65 0.66 0.66 0.67 0.65 0.65 0.68 0.72 0.70 0.68 0.70 0.76 0.82 0.86 0.87 0.83 0.77 0.78 0.83 0.88 0.93 0.96 0.96 0.93 0.95 0.99 1.09 1.17 1.24 1.22 1.09 1.05 1.06 1.01 0.86 0.75 0.79
0.67 0.65 0.63 0.64 0.61 0.58 0.59 0.61 0.63 0.63 0.63 0.65 0.69 0.76 0.76 0.75 0.73 0.68 0.66 0.67 0.71 0.76 0.83 0.89 0.90 0.90 0.90 0.93 0.99 1.02 0.98 0.88 0.77 0.78 0.89 0.90 0.76 0.71

GEFSNE_prec_meanprecacc_264.txt.gz
Total_Precipitation_Accumulation
2.23 2.33 2.30 2.27 2.27 2.21 2.27 2.34 2.40 2.30 2.07 1.84 1.78 1.69 1.72 1.74 1.86 1.51 1.51 1.69 1.50 1.39 1.32 1.28 1.28 1.21 1.18 1.18 1.18 1.18 1.22 1.29 1.40 1.50 1.60 1.70 1.85 2.05
1.96 2.11 2.16 2.18 2.28 2.32 2.41 2.44 2.43 2.42 2.28 1.95 1.85 1.76 1.76 1.68 1.95 1.67 1.63 1.70 1.48 1.31 1.20 1.12 1.08 1.04 1.02 1.04 1.07 1.10 1.10 1.08 1.10 1.18 1.28 1.39 1.51 1.64
1.77 1.87 1.96 2.01 2.11 2.15 2.22 2.25 2.33 2.37 2.31 2.06 1.92 1.90 1.88 1.85 1.87 1.73 1.63 1.55 1.43 1.31 1.14 1.04 1.00 0.96 0.95 0.97 0.99 1.00 1.03 1.04 1.05 1.07 1.12 1.20 1.28 1.36
1.63 1.70 1.77 1.78 1.85 1.83 1.92 1.99 2.02 2.08 2.10 2.12 2.12 2.07 2.01 1.95 1.86 1.70 1.46 1.28 1.24 1.21 1.08 1.03 1.01 1.00 1.01 1.04 1.03 1.02 0.99 0.94 0.94 1.00 1.05 1.06 1.09 1.18
1.40 1.45 1.51 1.52 1.50 1.46 1.52 1.54 1.64 1.75 1.94 2.00 1.98 2.04 2.02 2.02 2.07 1.78 1.53 1.48 1.15 1.08 1.01 1.00 1.00 0.97 0.97 0.96 0.94 0.93 0.91 0.83 0.76 0.77 0.85 0.95 0.99 0.99
1.18 1.22 1.24 1.18 1.15 1.18 1.20 1.25 1.40 1.66 1.83 1.88 1.78 1.80 1.87 1.86 2.02 1.90 1.74 1.61 1.36 1.03 0.96 0.88 0.89 0.89 0.87 0.82 0.79 0.77 0.78 0.80 0.80 0.77 0.76 0.76 0.79 0.82
1.06 1.06 1.02 0.99 1.02 1.00 0.95 1.06 1.27 1.52 1.64 1.71 1.70 1.65 1.65 1.71 1.77 1.68 1.67 1.65 1.53 1.23 1.13 0.91 0.83 0.86 0.89 0.87 0.83 0.76 0.70 0.68 0.70 0.70 0.71 0.73 0.74 0.77
1.05 0.96 0.91 0.87 0.86 0.87 0.88 0.96 1.09 1.21 1.33 1.46 1.51 1.52 1.52 1.56 1.67 1.67 1.66 1.69 1.65 1.40 1.34 1.19 0.98 1.04 0.99 0.91 0.84 0.75 0.73 0.73 0.71 0.71 0.74 0.75 0.75 0.77
1.08 1.08 0.94 0.79 0.87 0.90 0.92 0.97 1.01 1.05 1.14 1.31 1.40 1.38 1.46 1.58 1.76 1.73 1.73 1.70 1.62 1.45 1.49 1.44 1.26 1.21 0.97 0.83 0.84 0.77 0.72 0.70 0.71 0.71 0.73 0.75 0.76 0.76
1.00 1.02 1.03 0.98 0.93 0.98 0.95 0.97 0.99 1.05 1.11 1.19 1.34 1.36 1.33 1.44 1.65 1.67 1.67 1.64 1.55 1.45 1.51 1.56 1.31 1.22 0.95 0.99 0.91 0.74 0.67 0.68 0.69 0.64 0.65 0.68 0.74 0.79
0.84 0.83 0.83 0.84 0.85 0.94 1.01 1.07 1.07 1.06 0.96 1.02 1.08 1.17 1.28 1.37 1.45 1.51 1.63 1.77 1.69 1.52 1.48 1.57 1.44 1.29 1.11 1.13 1.00 0.84 0.76 0.77 0.73 0.62 0.58 0.58 0.62 0.71
0.78 0.76 0.75 0.71 0.69 0.68 0.79 0.98 1.09 1.05 0.99 1.01 1.14 1.29 1.38 1.43 1.42 1.48 1.60 1.72 1.70 1.70 1.50 1.52 1.51 1.42 1.38 1.16 1.05 1.01 0.99 1.03 0.92 0.73 0.61 0.58 0.62 0.68
0.76 0.76 0.74 0.65 0.56 0.57 0.69 0.85 0.92 0.91 1.00 1.23 1.44 1.51 1.51 1.46 1.37 1.36 1.49 1.61 1.65 1.66 1.43 1.46 1.51 1.53 1.59 1.38 1.09 1.08 1.16 1.24 1.20 1.01 0.80 0.71 0.68 0.66
0.72 0.71 0.67 0.62 0.54 0.57 0.64 0.76 0.80 0.91 1.14 1.39 1.55 1.52 1.34 1.20 1.19 1.19 1.26 1.40 1.51 1.48 1.38 1.41 1.52 1.57 1.56 1.43 1.24 1.16 1.25 1.36 1.39 1.29 1.08 0.96 0.89 0.81
0.65 0.64 0.61 0.63 0.64 0.73 0.79 0.80 0.88 1.07 1.27 1.38 1.39 1.29 1.18 1.13 1.15 1.20 1.18 1.31 1.37 1.26 1.15 1.18 1.35 1.45 1.54 1.49 1.41 1.42 1.49 1.60 1.57 1.52 1.39 1.17 1.02 0.96
0.63 0.68 0.75 0.81 0.83 0.87 0.92 1.01 1.07 1.14 1.15 1.23 1.22 1.16 1.09 1.11 1.15 1.12 1.17 1.26 1.38 1.34 1.21 1.16 1.24 1.39 1.49 1.44 1.50 1.57 1.61 1.83 1.79 1.64 1.57 1.48 1.29 1.09
0.61 0.75 0.93 1.00 1.02 1.00 0.99 1.02 1.06 1.07 1.09 1.07 1.05 1.04 1.07 1.08 1.07 1.04 1.09 1.13 1.27 1.29 1.29 1.26 1.27 1.31 1.29 1.30 1.40 1.44 1.52 1.67 1.77 1.70 1.65 1.72 1.67 1.42
0.64 0.86 1.01 1.05 1.07 0.97 0.92 0.90 0.90 0.90 0.88 0.89 0.92 0.97 1.01 1.00 1.00 1.00 1.02 1.09 1.18 1.18 1.19 1.23 1.27 1.40 1.39 1.25 1.30 1.38 1.38 1.56 1.66 1.61 1.53 1.67 1.80 1.58
0.62 0.77 0.88 0.96 0.97 0.88 0.83 0.85 0.85 0.83 0.83 0.84 0.89 0.93 0.94 0.93 0.96 0.99 1.00 1.05 1.10 1.11 1.11 1.12 1.16 1.27 1.37 1.37 1.31 1.35 1.38 1.43 1.47 1.45 1.45 1.49 1.65 1.59
0.65 0.71 0.77 0.84 0.88 0.85 0.82 0.84 0.84 0.83 0.83 0.85 0.86 0.91 0.96 0.95 0.92 0.92 0.94 0.96 1.01 1.06 1.10 1.13 1.14 1.16 1.21 1.24 1.37 1.40 1.32 1.20 1.16 1.23 1.26 1.32 1.43 1.43
0.68 0.70 0.70 0.73 0.76 0.78 0.81 0.82 0.81 0.80 0.80 0.80 0.81 0.87 0.91 0.91 0.91 0.86 0.85 0.86 0.93 0.99 1.07 1.12 1.12 1.07 1.06 1.12 1.27 1.34 1.29 1.30 1.20 1.08 1.07 1.13 1.15 1.06
0.64 0.69 0.70 0.69 0.70 0.67 0.68 0.71 0.75 0.73 0.70 0.72 0.78 0.86 0.90 0.91 0.86 0.80 0.81 0.88 0.92 0.96 1.00 0.99 0.95 0.97 1.03 1.14 1.21 1.28 1.25 1.12 1.10 1.11 1.05 0.90 0.78 0.81
0.72 0.70 0.68 0.68 0.64 0.59 0.61 0.64 0.66 0.65 0.65 0.67 0.72 0.80 0.81 0.79 0.76 0.71 0.69 0.71 0.74 0.79 0.87 0.93 0.94 0.94 0.95 0.98 1.04 1.07 1.02 0.92 0.82 0.83 0.93 0.94 0.80 0.75

GEFSNE_prec_meanprecacc_270.txt.gz
Total_Precipitation_Accumulation
2.28 2.38 2.36 2.33 2.33 2.27 2.33 2.40 2.47 2.37 2.12 1.88 1.82 1.72 1.74 1.76 1.90 1.54 1.53 1.72 1.52 1.41 1.36 1.33 1.32 1.25 1.21 1.21 1.21 1.21 1.24 1.30 1.42 1.52 1.61 1.71 1.86 2.07
2.01 2.18 2.24 2.25 2.35 2.40 2.47 2.49 2.49 2.49 2.34 2.00 1.90 1.80 1.79 1.71 1.99 1.71 1.66 1.74 1.51 1.33 1.22 1.16 1.13 1.08 1.05 1.08 1.11 1.14 1.14 1.11 1.13 1.20 1.30 1.40 1.52 1.66
1.83 1.92 2.01 2.07 2.18 2.22 2.28 2.30 2.39 2.43 2.37 2.10 1.96 1.95 1.93 1.89 1.91 1.77 1.68 1.59 1.46 1.34 1.17 1.07 1.03 0.99 0.97 1.00 1.03 1.03 1.07 1.08 1.08 1.09 1.13 1.21 1.29 1.37
1.68 1.74 1.81 1.83 1.91 1.89 1.98 2.04 2.07 2.14 2.15 2.17 2.16 2.10 2.06 2.00 1.90 1.73 1.49 1.31 1.27 1.23 1.11 1.06 1.03 1.02 1.03 1.06 1.06 1.04 1.02 0.98 0.98 1.03 1.08 1.08 1.10 1.18
1.44 1.49 1.56 1.58 1.56 1.53 1.59 1.60 1.71 1.81 2.00 2.04 2.02 2.08 2.06 2.06 2.12 1.82 1.57 1.52 1.17 1.10 1.04 1.03 1.03 1.00 1.00 0.98 0.96 0.94 0.92 0.85 0.78 0.80 0.88 0.98 1.02 1.00
1.23 1.26 1.28 1.23 1.20 1.24 1.26 1.32 1.46 1.73 1.90 1.93 1.81 1.83 1.90 1.90 2.06 1.93 1.78 1.64 1.40 1.05 0.99 0.91 0.92 0.92 0.90 0.84 0.81 0.78 0.78 0.80 0.80 0.78 0.77 0.78 0.81 0.83
1.10 1.09 1.05 1.03 1.05 1.04 0.99 1.10 1.31 1.57 1.70 1.76 1.75 1.70 1.69 1.75 1.80 1.71 1.70 1.69 1.56 1.26 1.16 0.95 0.86 0.88 0.91 0.89 0.84 0.76 0.70 0.68 0.70 0.70 0.71 0.73 0.75 0.78
1.10 1.01 0.94 0.89 0.88 0.89 0.90 0.98 1.12 1.25 1.37 1.50 1.54 1.55 1.56 1.61 1.72 1.72 1.70 1.73 1.68 1.42 1.37 1.23 1.01 1.07 1.02 0.93 0.85 0.76 0.74 0.73 0.71 0.71 0.74 0.75 0.75 0.77
1.12 1.12 0.96 0.81 0.89 0.93 0.95 1.00 1.03 1.08 1.17 1.33 1.43 1.41 1.49 1.63 1.82 1.79 1.78 1.76 1.67 1.50 1.54 1.49 1.31 1.25 0.99 0.85 0.86 0.78 0.72 0.70 0.71 0.71 0.74 0.75 0.77 0.77
1.02 1.04 1.06 1.00 0.95 1.00 0.98 1.01 1.03 1.07 1.13 1.21 1.36 1.39 1.37 1.50 1.73 1.75 1.76 1.74 1.64 1.53 1.59 1.63 1.37 1.27 0.98 1.01 0.92 0.74 0.67 0.69 0.69 0.64 0.65 0.68 0.75 0.80
0.87 0.85 0.85 0.86 0.86 0.96 1.03 1.12 1.12 1.09 0.96 1.03 1.09 1.18 1.30 1.39 1.47 1.55 1.69 1.84 1.75 1.57 1.54 1.63 1.49 1.35 1.17 1.18 1.03 0.85 0.77 0.78 0.74 0.63 0.58 0.58 0.62 0.72
0.80 0.77 0.76 0.72 0.70 0.70 0.81 1.01 1.13 1.08 1.01 1.02 1.14 1.30 1.39 1.44 1.43 1.49 1.63 1.76 1.74 1.73 1.54 1.58 1.55 1.49 1.45 1.22 1.10 1.05 1.02 1.05 0.93 0.75 0.62 0.59 0.62 0.69
0.77 0.77 0.75 0.65 0.56 0.58 0.70 0.87 0.95 0.93 1.03 1.25 1.46 1.52 1.53 1.48 1.38 1.37 1.52 1.64 1.69 1.70 1.47 1.52 1.57 1.60 1.65 1.43 1.13 1.12 1.19 1.27 1.22 1.02 0.82 0.73 0.70 0.69
0.74 0.73 0.69 0.63 0.55 0.58 0.64 0.76 0.81 0.93 1.17 1.42 1.58 1.55 1.36 1.22 1.21 1.22 1.29 1.44 1.54 1.53 1.43 1.47 1.58 1.63 1.61 1.48 1.29 1.20 1.29 1.39 1.41 1.31 1.10 0.98 0.91 0.85
0.66 0.65 0.63 0.64 0.66 0.74 0.79 0.81 0.89 1.09 1.30 1.41 1.42 1.32 1.21 1.16 1.19 1.23 1.22 1.36 1.42 1.30 1.19 1.23 1.40 1.50 1.60 1.54 1.46 1.47 1.54 1.64 1.60 1.55 1.42 1.20 1.05 0.99
0.64 0.70 0.77 0.83 0.85 0.88 0.93 1.02 1.09 1.17 1.19 1.26 1.25 1.19 1.13 1.16 1.20 1.17 1.21 1.32 1.44 1.39 1.25 1.20 1.28 1.43 1.53 1.48 1.55 1.63 1.67 1.88 1.83 1.68 1.61 1.50 1.31 1.11
0.63 0.77 0.95 1.02 1.04 1.02 1.00 1.04 1.08 1.09 1.11 1.10 1.09 1.09 1.12 1.12 1.11 1.08 1.14 1.19 1.33 1.34 1.33 1.30 1.31 1.36 1.33 1.34 1.44 1.48 1.56 1.72 1.81 1.73 1.69 1.75 1.70 1.45
0.66 0.89 1.04 1.08 1.10 1.01 0.95 0.93 0.92 0.93 0.91 0.92 0.97 1.02 1.05 1.03 1.03 1.03 1.06 1.13 1.23 1.23 1.24 1.28 1.33 1.46 1.45 1.30 1.33 1.41 1.41 1.59 1.69 1.64 1.56 1.71 1.84 1.62
0.63 0.78 0.91 1.01 1.04 0.95 0.88 0.88 0.88 0.86 0.86 0.88 0.93 0.96 0.98 0.97 0.99 1.02 1.04 1.10 1.14 1.15 1.16 1.17 1.22 1.34 1.43 1.41 1.34 1.37 1.40 1.46 1.50 1.49 1.49 1.53 1.70 1.63
0.66 0.72 0.78 0.87 0.94 0.91 0.87 0.88 0.87 0.86 0.87 0.88 0.90 0.94 0.99 1.00 0.96 0.96 0.99 1.00 1.05 1.10 1.14 1.18 1.19 1.21 1.25 1.28 1.41 1.42 1.34 1.23 1.20 1.28 1.31 1.38 1.48 1.48
0.69 0.71 0.71 0.74 0.78 0.83 0.87 0.88 0.86 0.84 0.83 0.83 0.84 0.91 0.95 0.95 0.95 0.91 0.90 0.91 0.97 1.03 1.11 1.16 1.15 1.10 1.09 1.15 1.30 1.36 1.32 1.34 1.23 1.12 1.11 1.19 1.21 1.12
0.67 0.72 0.73 0.72 0.73 0.72 0.74 0.77 0.80 0.78 0.74 0.76 0.82 0.89 0.93 0.94 0.90 0.84 0.86 0.92 0.96 1.00 1.04 1.03 0.99 1.02 1.07 1.18 1.25 1.32 1.29 1.16 1.12 1.14 1.08 0.94 0.82 0.85
0.74 0.74 0.71 0.71 0.67 0.63 0.66 0.69 0.70 0.70 0.70 0.71 0.76 0.83 0.84 0.83 0.80 0.76 0.74 0.76 0.78 0.83 0.91 0.97 0.99 0.99 1.00 1.03 1.09 1.10 1.05 0.96 0.85 0.86 0.97 0.97 0.83 0.78

GEFSNE_prec_meanprecacc_276.txt.gz
Total_Precipitation_Accumulation
2.34 2.44 2.42 2.38 2.38 2.32 2.40 2.50 2.58 2.47 2.21 1.95 1.87 1.76 1.78 1.81 1.97 1.61 1.59 1.78 1.57 1.44 1.38 1.36 1.34 1.27 1.24 1.25 1.25 1.26 1.27 1.33 1.44 1.54 1.63 1.74 1.88 2.09
2.08 2.24 2.30 2.30 2.41 2.45 2.54 2.57 2.58 2.58 2.42 2.05 1.95 1.85 1.83 1.75 2.05 1.77 1.73 1.83 1.57 1.38 1.25 1.19 1.16 1.11 1.08 1.11 1.15 1.18 1.18 1.15 1.16 1.23 1.33 1.43 1.55 1.69
1.89 1.98 2.07 2.13 2.25 2.28 2.35 2.37 2.46 2.51 2.44 2.15 2.02 2.01 2.01 1.95 1.98 1.84 1.75 1.69 1.55 1.42 1.23 1.11 1.08 1.05 1.03 1.05 1.08 1.08 1.12 1.13 1.13 1.13 1.17 1.24 1.31 1.39
1.76 1.83 1.89 1.91 1.99 1.95 2.04 2.10 2.14 2.22 2.23 2.23 2.22 2.16 2.13 2.08 1.99 1.81 1.56 1.38 1.34 1.33 1.18 1.11 1.07 1.06 1.09 1.12 1.12 1.11 1.08 1.04 1.04 1.08 1.12 1.11 1.12 1.20
1.53 1.58 1.63 1.67 1.64 1.59 1.65 1.66 1.77 1.88 2.08 2.11 2.07 2.13 2.11 2.12 2.22 1.93 1.68 1.62 1.24 1.19 1.12 1.09 1.08 1.04 1.03 1.03 1.02 1.00 0.99 0.92 0.85 0.86 0.94 1.03 1.06 1.03
1.30 1.33 1.33 1.29 1.26 1.30 1.31 1.37 1.53 1.80 1.98 2.01 1.89 1.89 1.95 1.95 2.14 2.03 1.91 1.77 1.49 1.12 1.06 0.98 0.98 0.98 0.95 0.88 0.85 0.83 0.83 0.85 0.85 0.83 0.84 0.85 0.88 0.90
1.16 1.14 1.10 1.08 1.12 1.10 1.03 1.15 1.40 1.67 1.78 1.84 1.82 1.77 1.75 1.82 1.87 1.78 1.78 1.79 1.67 1.35 1.23 1.01 0.91 0.94 0.97 0.94 0.89 0.80 0.73 0.72 0.73 0.74 0.75 0.77 0.80 0.84
1.17 1.07 0.99 0.94 0.92 0.93 0.93 1.02 1.17 1.31 1.44 1.57 1.61 1.61 1.61 1.66 1.77 1.77 1.77 1.80 1.75 1.50 1.46 1.31 1.07 1.12 1.07 0.97 0.91 0.81 0.78 0.76 0.74 0.74 0.76 0.77 0.76 0.78
1.18 1.18 1.02 0.86 0.94 0.97 0.99 1.03 1.06 1.11 1.21 1.39 1.50 1.46 1.53 1.67 1.87 1.84 1.84 1.83 1.73 1.56 1.62 1.57 1.39 1.32 1.05 0.89 0.91 0.82 0.76 0.74 0.74 0.73 0.76 0.77 0.78 0.77
1.08 1.10 1.11 1.06 0.99 1.04 1.02 1.04 1.06 1.11 1.17 1.24 1.39 1.43 1.40 1.54 1.77 1.79 1.81 1.79 1.70 1.58 1.66 1.70 1.44 1.33 1.05 1.07 0.97 0.80 0.72 0.72 0.71 0.66 0.67 0.70 0.76 0.81
0.91 0.90 0.89 0.89 0.89 0.97 1.05 1.15 1.15 1.12 0.99 1.05 1.11 1.20 1.32 1.41 1.50 1.58 1.73 1.88 1.79 1.61 1.59 1.69 1.53 1.40 1.23 1.23 1.07 0.89 0.80 0.81 0.75 0.64 0.59 0.59 0.63 0.73
0.86 0.82 0.79 0.74 0.71 0.71 0.82 1.04 1.16 1.11 1.04 1.04 1.16 1.32 1.40 1.45 1.44 1.51 1.66 1.79 1.78 1.77 1.58 1.63 1.60 1.54 1.50 1.27 1.15 1.08 1.05 1.07 0.95 0.76 0.63 0.60 0.63 0.69
0.81 0.81 0.78 0.67 0.57 0.59 0.71 0.89 0.96 0.95 1.05 1.28 1.50 1.56 1.56 1.51 1.41 1.39 1.54 1.68 1.74 1.74 1.51 1.58 1.64 1.66 1.71 1.48 1.18 1.17 1.24 1.31 1.25 1.04 0.83 0.74 0.71 0.70
0.77 0.77 0.72 0.65 0.56 0.58 0.65 0.78 0.83 0.95 1.20 1.46 1.61 1.58 1.39 1.25 1.24 1.25 1.32 1.48 1.59 1.57 1.48 1.52 1.63 1.69 1.67 1.54 1.34 1.25 1.35 1.45 1.47 1.35 1.13 1.00 0.93 0.87
0.68 0.68 0.64 0.65 0.67 0.76 0.81 0.83 0.91 1.11 1.33 1.44 1.45 1.35 1.24 1.19 1.22 1.27 1.26 1.40 1.47 1.34 1.23 1.27 1.44 1.55 1.65 1.59 1.50 1.52 1.60 1.71 1.66 1.60 1.47 1.23 1.08 1.03
0.66 0.72 0.79 0.85 0.87 0.90 0.96 1.04 1.11 1.19 1.21 1.29 1.28 1.23 1.17 1.20 1.24 1.21 1.26 1.37 1.50 1.43 1.29 1.24 1.32 1.48 1.58 1.54 1.61 1.68 1.73 1.95 1.89 1.75 1.66 1.55 1.35 1.15
0.65 0.79 0.97 1.05 1.07 1.04 1.03 1.06 1.10 1.12 1.14 1.13 1.12 1.13 1.16 1.16 1.15 1.13 1.20 1.26 1.38 1.38 1.37 1.35 1.37 1.42 1.39 1.39 1.49 1.53 1.62 1.78 1.87 1.80 1.76 1.82 1.76 1.49
0.68 0.91 1.06 1.11 1.13 1.03 0.98 0.95 0.95 0.96 0.94 0.95 1.00 1.06 1.09 1.07 1.08 1.08 1.12 1.19 1.28 1.27 1.30 1.34 1.39 1.52 1.53 1.38 1.39 1.46 1.47 1.65 1.76 1.72 1.63 1.76 1.89 1.67
0.65 0.80 0.93 1.04 1.07 0.97 0.91 0.91 0.91 0.90 0.90 0.92 0.97 1.00 1.02 1.01 1.04 1.07 1.08 1.14 1.18 1.20 1.22 1.23 1.27 1.39 1.49 1.48 1.41 1.42 1.45 1.52 1.57 1.56 1.56 1.60 1.76 1.68
0.68 0.73 0.80 0.90 0.97 0.94 0.90 0.91 0.91 0.91 0.91 0.92 0.94 0.99 1.04 1.05 1.01 1.01 1.03 1.05 1.10 1.16 1.20 1.22 1.23 1.25 1.31 1.34 1.46 1.46 1.37 1.27 1.25 1.33 1.37 1.45 1.55 1.53
0.71 0.73 0.74 0.77 0.82 0.86 0.90 0.92 0.90 0.88 0.88 0.88 0.89 0.96 1.01 1.01 1.00 0.96 0.95 0.96 1.02 1.08 1.15 1.19 1.19 1.14 1.16 1.24 1.37 1.41 1.36 1.37 1.27 1.17 1.17 1.26 1.27 1.18
0.70 0.75 0.76 0.75 0.76 0.75 0.78 0.83 0.85 0.81 0.78 0.81 0.88 0.96 1.00 1.00 0.96 0.90 0.92 0.98 1.02 1.05 1.08 1.07 1.03 1.07 1.14 1.25 1.33 1.38 1.33 1.20 1.16 1.17 1.12 0.99 0.86 0.90
0.77 0.76 0.74 0.75 0.72 0.68 0.70 0.74 0.74 0.73 0.73 0.75 0.82 0.89 0.90 0.89 0.88 0.82 0.79 0.81 0.84 0.88 0.95 1.03 1.05 1.05 1.05 1.09 1.16 1.16 1.10 1.00 0.89 0.91 1.01 1.00 0.85 0.80

GEFSNE_prec_meanprecacc_282.txt.gz
Total_Precipitation_Accumulation
2.42 2.52 2.50 2.44 2.43 2.37 2.44 2.55 2.63 2.51 2.23 1.96 1.90 1.79 1.82 1.85 2.04 1.70 1.69 1.89 1.68 1.56 1.50 1.45 1.41 1.32 1.28 1.28 1.28 1.30 1.31 1.37 1.47 1.57 1.66 1.76 1.91 2.12
2.15 2.31 2.36 2.35 2.46 2.51 2.60 2.63 2.64 2.64 2.45 2.06 1.96 1.87 1.87 1.80 2.11 1.81 1.77 1.88 1.64 1.45 1.33 1.25 1.21 1.15 1.12 1.15 1.17 1.21 1.21 1.18 1.19 1.26 1.35 1.45 1.57 1.71
1.97 2.05 2.13 2.20 2.33 2.37 2.44 2.46 2.54 2.57 2.49 2.17 2.04 2.03 2.04 1.99 2.02 1.89 1.79 1.73 1.59 1.47 1.28 1.16 1.12 1.08 1.05 1.08 1.11 1.10 1.14 1.15 1.16 1.17 1.20 1.27 1.34 1.40
1.82 1.88 1.93 1.96 2.03 2.00 2.09 2.14 2.18 2.27 2.28 2.26 2.23 2.17 2.16 2.10 2.02 1.84 1.59 1.40 1.36 1.36 1.22 1.15 1.11 1.10 1.12 1.15 1.14 1.13 1.10 1.06 1.06 1.10 1.15 1.14 1.15 1.22
1.57 1.62 1.67 1.71 1.67 1.62 1.67 1.68 1.79 1.91 2.11 2.14 2.08 2.15 2.12 2.13 2.23 1.95 1.71 1.66 1.27 1.22 1.15 1.13 1.12 1.08 1.07 1.06 1.04 1.03 1.00 0.93 0.86 0.88 0.96 1.06 1.09 1.06
1.32 1.36 1.37 1.33 1.30 1.34 1.35 1.41 1.56 1.82 2.01 2.04 1.91 1.92 1.97 1.97 2.16 2.05 1.93 1.81 1.54 1.15 1.10 1.02 1.03 1.03 1.01 0.93 0.89 0.86 0.87 0.88 0.88 0.85 0.86 0.87 0.91 0.93
1.19 1.17 1.12 1.11 1.14 1.12 1.05 1.17 1.41 1.68 1.80 1.86 1.85 1.80 1.77 1.84 1.89 1.80 1.79 1.81 1.71 1.40 1.28 1.05 0.94 0.98 1.01 0.99 0.94 0.84 0.77 0.75 0.78 0.79 0.79 0.80 0.83 0.87
1.19 1.09 1.00 0.95 0.93 0.94 0.95 1.03 1.18 1.32 1.45 1.59 1.64 1.65 1.64 1.69 1.79 1.79 1.79 1.82 1.78 1.54 1.51 1.34 1.10 1.16 1.10 1.01 0.96 0.86 0.81 0.79 0.77 0.78 0.82 0.83 0.82 0.83
1.21 1.21 1.04 0.87 0.95 0.98 1.00 1.04 1.06 1.12 1.22 1.40 1.52 1.50 1.56 1.70 1.90 1.87 1.88 1.86 1.76 1.59 1.67 1.62 1.43 1.36 1.10 0.95 0.97 0.88 0.82 0.78 0.77 0.76 0.79 0.82 0.84 0.85
1.11 1.13 1.14 1.09 1.02 1.06 1.03 1.05 1.07 1.11 1.17 1.25 1.40 1.45 1.44 1.57 1.79 1.81 1.84 1.83 1.73 1.62 1.70 1.75 1.47 1.38 1.09 1.11 1.01 0.85 0.78 0.78 0.75 0.69 0.70 0.73 0.81 0.86
0.97 0.94 0.92 0.93 0.93 1.01 1.09 1.18 1.17 1.13 1.00 1.06 1.12 1.22 1.35 1.44 1.53 1.61 1.75 1.91 1.82 1.64 1.62 1.71 1.55 1.42 1.26 1.27 1.11 0.93 0.85 0.87 0.82 0.68 0.62 0.62 0.67 0.79
0.92 0.88 0.84 0.78 0.75 0.74 0.85 1.07 1.20 1.13 1.06 1.06 1.18 1.33 1.42 1.47 1.46 1.52 1.68 1.82 1.80 1.80 1.60 1.65 1.60 1.55 1.51 1.29 1.18 1.12 1.09 1.11 1.01 0.82 0.67 0.63 0.66 0.73
0.86 0.85 0.82 0.71 0.62 0.63 0.73 0.91 0.99 0.98 1.08 1.31 1.51 1.57 1.57 1.52 1.42 1.40 1.56 1.70 1.76 1.75 1.53 1.59 1.64 1.67 1.73 1.49 1.20 1.20 1.27 1.34 1.29 1.09 0.88 0.78 0.75 0.73
0.83 0.82 0.77 0.69 0.60 0.63 0.68 0.79 0.84 0.96 1.21 1.48 1.63 1.59 1.40 1.26 1.25 1.25 1.33 1.49 1.60 1.58 1.49 1.54 1.65 1.70 1.68 1.55 1.35 1.26 1.37 1.48 1.50 1.39 1.16 1.03 0.97 0.90
0.72 0.72 0.69 0.70 0.71 0.79 0.84 0.85 0.92 1.12 1.34 1.45 1.46 1.36 1.24 1.19 1.23 1.28 1.27 1.41 1.48 1.35 1.24 1.28 1.46 1.56 1.66 1.59 1.51 1.53 1.60 1.72 1.68 1.63 1.49 1.25 1.10 1.05
0.70 0.76 0.82 0.89 0.91 0.93 0.98 1.06 1.12 1.20 1.22 1.30 1.29 1.24 1.18 1.21 1.25 1.22 1.26 1.38 1.51 1.43 1.29 1.25 1.34 1.50 1.59 1.55 1.62 1.69 1.73 1.95 1.90 1.76 1.69 1.57 1.37 1.17
0.69 0.82 1.00 1.08 1.09 1.06 1.04 1.07 1.12 1.13 1.14 1.13 1.13 1.14 1.17 1.17 1.16 1.14 1.21 1.27 1.39 1.38 1.37 1.35 1.38 1.44 1.40 1.41 1.50 1.54 1.63 1.79 1.88 1.81 1.77 1.83 1.78 1.52
0.72 0.95 1.10 1.14 1.15 1.04 0.99 0.97 0.96 0.97 0.95 0.96 1.01 1.07 1.10 1.08 1.08 1.09 1.13 1.20 1.29 1.28 1.30 1.35 1.40 1.54 1.55 1.39 1.40 1.47 1.48 1.67 1.78 1.73 1.65 1.79 1.91 1.70
0.70 0.84 0.97 1.07 1.09 0.99 0.93 0.93 0.93 0.92 0.92 0.94 0.99 1.02 1.03 1.02 1.05 1.08 1.10 1.16 1.20 1.21 1.23 1.24 1.29 1.41 1.51 1.49 1.42 1.44 1.47 1.53 1.59 1.59 1.59 1.63 1.78 1.71
0.76 0.81 0.87 0.96 1.02 0.98 0.93 0.95 0.95 0.95 0.95 0.96 0.97 1.02 1.06 1.07 1.03 1.02 1.05 1.06 1.12 1.17 1.22 1.24 1.24 1.26 1.31 1.35 1.47 1.47 1.38 1.29 1.27 1.36 1.42 1.49 1.58 1.55
0.76 0.78 0.79 0.82 0.87 0.92 0.96 0.96 0.94 0.92 0.92 0.93 0.94 1.00 1.04 1.03 1.02 0.98 0.97 0.98 1.04 1.10 1.17 1.21 1.20 1.16 1.18 1.26 1.39 1.43 1.37 1.39 1.30 1.20 1.21 1.31 1.32 1.20
0.73 0.79 0.80 0.79 0.80 0.80 0.84 0.89 0.90 0.87 0.83 0.86 0.93 1.00 1.03 1.04 0.99 0.92 0.94 1.00 1.04 1.07 1.10 1.09 1.06 1.10 1.16 1.28 1.36 1.41 1.36 1.22 1.19 1.20 1.15 1.02 0.90 0.92
0.80 0.80 0.77 0.78 0.76 0.74 0.76 0.81 0.81 0.80 0.80 0.81 0.87 0.94 0.94 0.93 0.91 0.85 0.82 0.83 0.87 0.90 0.97 1.06 1.08 1.08 1.08 1.12 1.19 1.21 1.14 1.04 0.93 0.94 1.04 1.03 0.88 0.82

GEFSNE_prec_meanprecacc_288.txt.gz
Total_Precipitation_Accumulation
2.48 2.58 2.56 2.49 2.49 2.42 2.48 2.59 2.67 2.53 2.24 1.97 1.90 1.80 1.83 1.87 2.06 1.71 1.69 1.90 1.70 1.59 1.52 1.48 1.45 1.37 1.33 1.34 1.34 1.34 1.35 1.40 1.50 1.59 1.69 1.79 1.94 2.16
2.20 2.35 2.40 2.38 2.50 2.55 2.63 2.66 2.67 2.66 2.47 2.08 1.98 1.88 1.88 1.81 2.12 1.83 1.78 1.90 1.66 1.47 1.34 1.27 1.23 1.18 1.16 1.20 1.22 1.26 1.27 1.23 1.23 1.28 1.38 1.47 1.60 1.74
2.02 2.10 2.18 2.25 2.38 2.42 2.50 2.51 2.58 2.62 2.53 2.21 2.08 2.07 2.07 2.01 2.04 1.91 1.82 1.76 1.61 1.49 1.30 1.18 1.14 1.10 1.09 1.13 1.17 1.15 1.19 1.22 1.23 1.22 1.24 1.30 1.37 1.44
1.87 1.93 1.98 2.02 2.10 2.06 2.15 2.21 2.24 2.33 2.34 2.31 2.28 2.20 2.18 2.12 2.04 1.87 1.62 1.44 1.40 1.38 1.24 1.17 1.14 1.12 1.15 1.18 1.19 1.18 1.14 1.10 1.10 1.15 1.20 1.19 1.19 1.26
1.62 1.66 1.72 1.76 1.72 1.67 1.72 1.73 1.83 1.95 2.15 2.18 2.13 2.19 2.16 2.16 2.26 1.98 1.73 1.68 1.30 1.24 1.17 1.16 1.15 1.12 1.10 1.09 1.09 1.07 1.05 0.98 0.90 0.91 1.00 1.10 1.13 1.11
1.37 1.40 1.40 1.36 1.33 1.36 1.37 1.43 1.58 1.84 2.03 2.06 1.94 1.94 2.00 1.99 2.18 2.08 1.96 1.83 1.55 1.17 1.12 1.04 1.06 1.06 1.03 0.96 0.92 0.90 0.91 0.94 0.94 0.90 0.89 0.90 0.95 0.98
1.22 1.20 1.15 1.13 1.16 1.13 1.06 1.18 1.43 1.70 1.81 1.88 1.87 1.81 1.79 1.87 1.92 1.82 1.81 1.83 1.72 1.41 1.29 1.06 0.97 1.00 1.02 1.01 0.96 0.87 0.80 0.79 0.83 0.84 0.84 0.84 0.86 0.90
1.20 1.10 1.02 0.97 0.95 0.95 0.96 1.04 1.19 1.33 1.46 1.60 1.65 1.66 1.65 1.70 1.81 1.82 1.81 1.84 1.78 1.55 1.52 1.35 1.12 1.18 1.12 1.03 0.97 0.88 0.85 0.83 0.81 0.82 0.87 0.88 0.87 0.87
1.23 1.23 1.06 0.89 0.97 1.00 1.02 1.05 1.07 1.12 1.23 1.41 1.52 1.50 1.57 1.70 1.91 1.89 1.90 1.88 1.78 1.61 1.69 1.63 1.44 1.38 1.12 0.97 0.99 0.90 0.84 0.82 0.81 0.80 0.83 0.86 0.89 0.90
1.13 1.16 1.18 1.13 1.06 1.09 1.06 1.07 1.08 1.12 1.19 1.26 1.41 1.45 1.44 1.58 1.80 1.81 1.84 1.84 1.75 1.64 1.73 1.78 1.50 1.40 1.11 1.13 1.04 0.87 0.80 0.80 0.79 0.73 0.74 0.77 0.85 0.91
1.01 0.99 0.98 0.97 0.98 1.06 1.13 1.22 1.21 1.17 1.04 1.08 1.14 1.23 1.36 1.45 1.53 1.61 1.76 1.92 1.84 1.67 1.65 1.76 1.60 1.46 1.29 1.30 1.13 0.96 0.88 0.90 0.85 0.72 0.66 0.67 0.72 0.84
0.96 0.92 0.88 0.82 0.81 0.82 0.91 1.13 1.25 1.17 1.09 1.09 1.20 1.35 1.43 1.49 1.47 1.53 1.70 1.84 1.83 1.83 1.64 1.69 1.67 1.62 1.57 1.33 1.20 1.14 1.11 1.15 1.05 0.86 0.72 0.68 0.72 0.79
0.88 0.87 0.84 0.73 0.64 0.66 0.79 0.96 1.04 1.03 1.14 1.36 1.56 1.60 1.59 1.54 1.43 1.41 1.57 1.72 1.78 1.78 1.55 1.62 1.69 1.73 1.79 1.54 1.22 1.21 1.29 1.37 1.33 1.15 0.93 0.84 0.82 0.79
0.84 0.84 0.78 0.71 0.62 0.65 0.73 0.85 0.90 1.01 1.26 1.54 1.69 1.65 1.44 1.28 1.27 1.27 1.34 1.50 1.61 1.58 1.50 1.56 1.69 1.74 1.73 1.58 1.37 1.28 1.38 1.49 1.53 1.43 1.21 1.10 1.05 0.98
0.73 0.73 0.71 0.72 0.73 0.82 0.87 0.89 0.98 1.17 1.38 1.49 1.50 1.41 1.29 1.23 1.26 1.30 1.28 1.42 1.49 1.35 1.24 1.29 1.49 1.60 1.69 1.62 1.53 1.54 1.61 1.73 1.71 1.67 1.55 1.31 1.17 1.13
0.72 0.78 0.85 0.91 0.93 0.95 0.99 1.08 1.15 1.24 1.26 1.34 1.33 1.27 1.21 1.26 1.30 1.26 1.29 1.40 1.52 1.45 1.31 1.26 1.36 1.53 1.62 1.57 1.63 1.71 1.75 1.96 1.92 1.79 1.73 1.62 1.43 1.23
0.71 0.85 1.02 1.10 1.12 1.09 1.06 1.09 1.13 1.15 1.18 1.16 1.16 1.17 1.21 1.21 1.21 1.19 1.25 1.30 1.42 1.40 1.39 1.37 1.39 1.45 1.42 1.42 1.52 1.56 1.64 1.81 1.89 1.83 1.81 1.88 1.84 1.59
0.75 0.98 1.12 1.16 1.17 1.07 1.01 0.98 0.97 0.99 0.97 0.99 1.04 1.10 1.14 1.12 1.12 1.13 1.18 1.26 1.34 1.31 1.32 1.36 1.41 1.55 1.56 1.41 1.42 1.49 1.49 1.68 1.79 1.75 1.67 1.82 1.96 1.75
0.72 0.86 0.99 1.09 1.12 1.01 0.95 0.95 0.95 0.93 0.93 0.96 1.02 1.04 1.07 1.06 1.09 1.12 1.14 1.21 1.26 1.28 1.27 1.26 1.30 1.42 1.52 1.50 1.43 1.45 1.48 1.54 1.60 1.61 1.61 1.65 1.82 1.75
0.78 0.83 0.88 0.98 1.05 1.01 0.96 0.98 0.98 0.97 0.98 0.99 1.00 1.05 1.10 1.11 1.07 1.07 1.10 1.11 1.16 1.21 1.26 1.27 1.27 1.28 1.34 1.36 1.49 1.48 1.39 1.30 1.29 1.38 1.44 1.51 1.60 1.60
0.78 0.79 0.80 0.85 0.90 0.96 1.00 1.01 0.98 0.95 0.95 0.96 0.97 1.03 1.08 1.07 1.06 1.02 1.01 1.02 1.08 1.13 1.20 1.23 1.22 1.20 1.22 1.30 1.42 1.44 1.39 1.41 1.31 1.21 1.22 1.33 1.34 1.22
0.77 0.81 0.82 0.81 0.83 0.83 0.88 0.93 0.94 0.90 0.88 0.91 0.98 1.04 1.07 1.08 1.03 0.96 0.97 1.03 1.08 1.10 1.12 1.11 1.08 1.14 1.21 1.31 1.39 1.43 1.37 1.23 1.19 1.21 1.17 1.04 0.92 0.95
0.84 0.83 0.80 0.81 0.79 0.77 0.79 0.84 0.85 0.83 0.84 0.87 0.93 1.00 1.00 0.99 0.97 0.91 0.87 0.88 0.91 0.94 1.00 1.09 1.11 1.11 1.11 1.14 1.21 1.22 1.15 1.05 0.93 0.94 1.05 1.05 0.91 0.85